Location: Newark
(46.7636°N, 1.8358°W)
Time: 05:08:59
(UTC+00:00)

Vanguard 2 - All Passes

Search period start: 16 October 2019 00:00
Search period end: 26 October 2019 00:00
Orbit: 554 x 2937 km, 32.9° (Epoch: 15 October)

Date Brightness Start Highest point End Pass type
(mag) Time Alt. Az. Time Alt. Az. Time Alt. Az.
16 Oct - 01:54:27 10° W 02:06:20 23° SW 02:17:50 10° S visible
16 Oct - 17:37:50 10° S 17:44:30 20° SE 17:53:14 10° E visible
16 Oct - 19:42:29 10° SW 19:52:47 41° SSE 20:07:29 10° E visible
16 Oct - 21:50:14 10° WSW 22:03:04 47° S 22:19:31 10° ESE visible
17 Oct - 00:00:04 10° W 00:13:54 37° SSW 00:28:57 10° SE visible
17 Oct - 02:13:59 10° WSW 02:23:37 17° SW 02:33:02 10° S visible
17 Oct - 17:54:21 10° SSW 18:01:44 25° SE 18:11:58 10° E visible
17 Oct - 19:59:56 10° SW 20:10:25 43° SSE 20:25:29 10° ESE visible
17 Oct - 22:08:03 10° WSW 22:20:51 45° S 22:37:06 10° SE visible
18 Oct - 00:18:22 10° W 00:31:29 31° SSW 00:45:40 10° SSE visible
18 Oct - 02:35:17 10° WSW 02:40:52 12° SW 02:46:23 10° SSW night (unlit)
18 Oct - 18:11:14 10° SSW 18:19:04 30° SSE 18:30:23 10° E visible
18 Oct - 20:17:32 10° WSW 20:28:07 45° S 20:43:23 10° ESE visible
18 Oct - 22:25:58 10° WSW 22:38:37 42° SSW 22:54:30 10° SE visible
19 Oct - 00:36:55 10° W 00:49:00 26° SSW 01:01:58 10° SSE visible
19 Oct - 16:25:53 10° SSE 16:29:11 12° SE 16:33:00 10° ESE daylight
19 Oct - 18:28:23 10° SW 18:36:31 34° SSE 18:48:36 10° E visible
19 Oct - 20:35:12 10° WSW 20:45:52 45° S 21:01:11 10° ESE visible
19 Oct - 22:43:59 10° W 22:56:21 38° SSW 23:11:41 10° SE visible
20 Oct - 00:55:57 10° WSW 01:06:29 21° SW 01:17:39 10° S night (unlit)
20 Oct - 16:41:28 10° S 16:46:20 17° SE 16:52:37 10° ESE daylight
20 Oct - 18:45:44 10° SW 18:54:04 37° SSE 19:06:41 10° ESE visible
20 Oct - 20:52:57 10° WSW 21:03:39 44° S 21:18:51 10° ESE visible
20 Oct - 23:02:08 10° W 23:14:03 33° SSW 23:28:34 10° SSE visible
21 Oct - 01:15:56 10° WSW 01:23:53 15° SW 01:32:13 10° SSW night (unlit)
21 Oct - 16:57:58 10° SSW 17:03:36 21° SE 17:11:23 10° ESE daylight
21 Oct - 19:03:13 10° SW 19:11:42 40° SSE 19:24:39 10° ESE visible
21 Oct - 21:10:48 10° WSW 21:21:26 41° S 21:36:23 10° SE visible
21 Oct - 23:20:31 10° WSW 23:31:42 28° SSW 23:45:05 10° SSE visible
22 Oct - 17:14:53 10° SSW 17:20:58 26° SSE 17:29:47 10° ESE daylight
22 Oct - 19:20:50 10° WSW 19:29:23 40° S 19:42:31 10° ESE visible
22 Oct - 21:28:44 10° WSW 21:39:13 37° SSW 21:53:41 10° SE visible
22 Oct - 23:39:15 10° WSW 23:49:19 22° SSW 00:01:04 10° S visible
23 Oct - 17:32:04 10° SW 17:38:27 30° SSE 17:47:58 10° ESE visible
23 Oct - 19:38:31 10° WSW 19:47:08 40° S 20:00:16 10° ESE visible
23 Oct - 21:46:48 10° WSW 21:56:59 33° SSW 22:10:43 10° SE visible
23 Oct - 23:58:40 10° WSW 00:06:54 17° SW 00:16:12 10° S visible
24 Oct - 15:45:40 10° S 15:48:43 13° SE 15:52:22 10° ESE daylight
24 Oct - 17:49:27 10° SW 17:56:01 32° SSE 18:06:01 10° ESE visible
24 Oct - 19:56:18 10° WSW 20:04:55 38° S 20:17:53 10° SE visible
24 Oct - 22:05:03 10° WSW 22:14:44 28° SSW 22:27:25 10° SSE visible
25 Oct - 00:19:55 10° WSW 00:24:28 12° SW 00:29:19 10° SSW night (unlit)
25 Oct - 16:02:01 10° S 16:06:03 17° SSE 16:11:18 10° ESE daylight
25 Oct - 18:06:59 10° SW 18:13:40 34° S 18:23:56 10° ESE visible
25 Oct - 20:14:11 10° WSW 20:22:42 35° S 20:35:17 10° SE visible
25 Oct - 22:23:37 10° WSW 22:32:28 23° SSW 22:43:37 10° SSE visible
